owner,sensor,date,latitude,longitude,mass_concentration_of_chlorophyll_in_sea_water,qcFlag 
SCCF RECON,ioos:station:SCCF:53:1,2011-07-01T00:00:00Z,26.6493,-81.8810,18.24,1111122 
SCCF RECON,ioos:station:SCCF:53:1,2011-07-01T01:00:00Z,26.6493,-81.8810,7.66,1111122 
SCCF RECON,ioos:station:SCCF:53:1,2011-07-01T02:00:00Z,26.6493,-81.8810,7.82,1111122 
SCCF RECON,ioos:station:SCCF:53:1,2011-07-01T03:00:00Z,26.6493,-81.8810,16.35,1111122 
SCCF RECON,ioos:station:SCCF:53:1,2011-07-01T04:00:00Z,26.6493,-81.8810,10.82,1111122 
SCCF RECON,ioos:station:SCCF:53:1,2011-07-01T05:00:00Z,26.6493,-81.8810,15.25,1111122 
SCCF RECON,ioos:station:SCCF:53:1,2011-07-01T06:00:00Z,26.6493,-81.8810,15.92,1111122 
SCCF RECON,ioos:station:SCCF:53:1,2011-07-01T07:00:00Z,26.6493,-81.8810,12.11,1111122 
SCCF RECON,ioos:station:SCCF:53:1,2011-07-01T08:00:00Z,26.6493,-81.8810,19.47,1111122 
SCCF RECON,ioos:station:SCCF:53:1,2011-07-01T09:00:00Z,26.6493,-81.8810,15.15,1111122 
SCCF RECON,ioos:station:SCCF:53:1,2011-07-01T10:00:00Z,26.6493,-81.8810,14.57,1111122 
SCCF RECON,ioos:station:SCCF:53:1,2011-07-01T11:00:00Z,26.6493,-81.8810,9.57,1111122 
SCCF RECON,ioos:station:SCCF:53:1,2011-07-01T12:00:00Z,26.6493,-81.8810,5.0,1111122 
SCCF RECON,ioos:station:SCCF:53:1,2011-07-01T13:00:00Z,26.6493,-81.8810,7.41,1111122 
SCCF RECON,ioos:station:SCCF:53:1,2011-07-01T14:00:00Z,26.6493,-81.8810,4.5,1111122 
SCCF RECON,ioos:station:SCCF:53:1,2011-07-01T15:00:00Z,26.6493,-81.8810,5.12,1111122 
SCCF RECON,ioos:station:SCCF:53:1,2011-07-01T16:00:00Z,26.6493,-81.8810,7.93,1111122 
SCCF RECON,ioos:station:SCCF:53:1,2011-07-01T17:00:00Z,26.6493,-81.8810,16.48,1111122 
SCCF RECON,ioos:station:SCCF:53:1,2011-07-01T18:00:00Z,26.6493,-81.8810,27.86,1111122 
SCCF RECON,ioos:station:SCCF:53:1,2011-07-01T19:00:00Z,26.6493,-81.8810,37.67,1111122 
SCCF RECON,ioos:station:SCCF:53:1,2011-07-01T20:00:00Z,26.6493,-81.8810,31.26,1111122 
SCCF RECON,ioos:station:SCCF:53:1,2011-07-01T21:00:00Z,26.6493,-81.8810,14.16,1111122 
SCCF RECON,ioos:station:SCCF:53:1,2011-07-01T22:00:00Z,26.6493,-81.8810,14.48,1111122 
SCCF RECON,ioos:station:SCCF:53:1,2011-07-01T23:00:00Z,26.6493,-81.8810,11.2,1111122 
SCCF RECON,ioos:station:SCCF:53:1,2011-07-02T00:00:00Z,26.6493,-81.8810,8.84,1111122 
SCCF RECON,ioos:station:SCCF:53:1,2011-07-02T01:00:00Z,26.6493,-81.8810,12.02,1111122 
SCCF RECON,ioos:station:SCCF:53:1,2011-07-02T02:00:00Z,26.6493,-81.8810,9.76,1111122 
SCCF RECON,ioos:station:SCCF:53:1,2011-07-02T03:00:00Z,26.6493,-81.8810,3.57,1111122 
SCCF RECON,ioos:station:SCCF:53:1,2011-07-02T04:00:00Z,26.6493,-81.8810,5.95,1111122 
SCCF RECON,ioos:station:SCCF:53:1,2011-07-02T05:00:00Z,26.6493,-81.8810,9.77,1111122 
SCCF RECON,ioos:station:SCCF:53:1,2011-07-02T06:00:00Z,26.6493,-81.8810,16.81,1111122 
SCCF RECON,ioos:station:SCCF:53:1,2011-07-02T07:00:00Z,26.6493,-81.8810,17.31,1111122 
SCCF RECON,ioos:station:SCCF:53:1,2011-07-02T08:00:00Z,26.6493,-81.8810,20.06,1111122 
SCCF RECON,ioos:station:SCCF:53:1,2011-07-02T09:00:00Z,26.6493,-81.8810,21.1,1111122 
SCCF RECON,ioos:station:SCCF:53:1,2011-07-02T10:00:00Z,26.6493,-81.8810,11.76,1111122 
SCCF RECON,ioos:station:SCCF:53:1,2011-07-02T11:00:00Z,26.6493,-81.8810,6.92,1111122 
SCCF RECON,ioos:station:SCCF:53:1,2011-07-02T12:00:00Z,26.6493,-81.8810,8.61,1111122 
SCCF RECON,ioos:station:SCCF:53:1,2011-07-02T13:00:00Z,26.6493,-81.8810,5.93,1111122 
SCCF RECON,ioos:station:SCCF:53:1,2011-07-02T14:00:00Z,26.6493,-81.8810,7.28,1111122 
SCCF RECON,ioos:station:SCCF:53:1,2011-07-02T15:00:00Z,26.6493,-81.8810,5.95,1111122 
SCCF RECON,ioos:station:SCCF:53:1,2011-07-02T16:00:00Z,26.6493,-81.8810,5.79,1111122 
SCCF RECON,ioos:station:SCCF:53:1,2011-07-02T17:00:00Z,26.6493,-81.8810,6.3,1111122 
SCCF RECON,ioos:station:SCCF:53:1,2011-07-02T18:00:00Z,26.6493,-81.8810,6.68,1111122 
SCCF RECON,ioos:station:SCCF:53:1,2011-07-02T19:00:00Z,26.6493,-81.8810,8.5,1111122 
SCCF RECON,ioos:station:SCCF:53:1,2011-07-02T20:00:00Z,26.6493,-81.8810,10.93,1111122 
SCCF RECON,ioos:station:SCCF:53:1,2011-07-02T21:00:00Z,26.6493,-81.8810,12.17,1111122 
SCCF RECON,ioos:station:SCCF:53:1,2011-07-02T22:00:00Z,26.6493,-81.8810,6.49,1111122 
SCCF RECON,ioos:station:SCCF:53:1,2011-07-02T23:00:00Z,26.6493,-81.8810,6.73,1111122 
SCCF RECON,ioos:station:SCCF:53:1,2011-07-03T00:00:00Z,26.6493,-81.8810,4.99,1111122 
SCCF RECON,ioos:station:SCCF:53:1,2011-07-03T01:00:00Z,26.6493,-81.8810,12.75,1111122 
SCCF RECON,ioos:station:SCCF:53:1,2011-07-03T02:00:00Z,26.6493,-81.8810,17.7,1111122 
SCCF RECON,ioos:station:SCCF:53:1,2011-07-03T03:00:00Z,26.6493,-81.8810,10.39,1111122 
SCCF RECON,ioos:station:SCCF:53:1,2011-07-03T04:00:00Z,26.6493,-81.8810,10.0,1111122 
SCCF RECON,ioos:station:SCCF:53:1,2011-07-03T05:00:00Z,26.6493,-81.8810,6.73,1111122 
SCCF RECON,ioos:station:SCCF:53:1,2011-07-03T06:00:00Z,26.6493,-81.8810,11.41,1111122 
SCCF RECON,ioos:station:SCCF:53:1,2011-07-03T07:00:00Z,26.6493,-81.8810,18.31,1111122 
SCCF RECON,ioos:station:SCCF:53:1,2011-07-03T08:00:00Z,26.6493,-81.8810,7.96,1111122 
SCCF RECON,ioos:station:SCCF:53:1,2011-07-03T09:00:00Z,26.6493,-81.8810,16.57,1111122 
SCCF RECON,ioos:station:SCCF:53:1,2011-07-03T10:00:00Z,26.6493,-81.8810,7.12,1111122 
SCCF RECON,ioos:station:SCCF:53:1,2011-07-03T11:00:00Z,26.6493,-81.8810,6.62,1111122 
SCCF RECON,ioos:station:SCCF:53:1,2011-07-03T12:00:00Z,26.6493,-81.8810,9.17,1111122 
SCCF RECON,ioos:station:SCCF:53:1,2011-07-03T13:00:00Z,26.6493,-81.8810,5.12,1111122 
SCCF RECON,ioos:station:SCCF:53:1,2011-07-03T14:00:00Z,26.6493,-81.8810,5.04,1111122 
SCCF RECON,ioos:station:SCCF:53:1,2011-07-03T15:00:00Z,26.6493,-81.8810,3.38,1111122 
SCCF RECON,ioos:station:SCCF:53:1,2011-07-03T16:00:00Z,26.6493,-81.8810,4.87,1111122 
SCCF RECON,ioos:station:SCCF:53:1,2011-07-03T17:00:00Z,26.6493,-81.8810,6.8,1111122 
SCCF RECON,ioos:station:SCCF:53:1,2011-07-03T18:00:00Z,26.6493,-81.8810,8.34,1111122 
SCCF RECON,ioos:station:SCCF:53:1,2011-07-03T19:00:00Z,26.6493,-81.8810,14.56,1111122 
SCCF RECON,ioos:station:SCCF:53:1,2011-07-03T20:00:00Z,26.6493,-81.8810,17.08,1111122 
SCCF RECON,ioos:station:SCCF:53:1,2011-07-03T21:00:00Z,26.6493,-81.8810,18.58,1111122 
SCCF RECON,ioos:station:SCCF:53:1,2011-07-03T22:00:00Z,26.6493,-81.8810,7.04,1111122 
SCCF RECON,ioos:station:SCCF:53:1,2011-07-03T23:00:00Z,26.6493,-81.8810,13.35,1111122 
SCCF RECON,ioos:station:SCCF:53:1,2011-07-04T00:00:00Z,26.6493,-81.8810,4.92,1111122 
SCCF RECON,ioos:station:SCCF:53:1,2011-07-04T01:00:00Z,26.6493,-81.8810,4.39,1111122 
SCCF RECON,ioos:station:SCCF:53:1,2011-07-04T02:00:00Z,26.6493,-81.8810,4.75,1111122 
SCCF RECON,ioos:station:SCCF:53:1,2011-07-04T03:00:00Z,26.6493,-81.8810,3.77,1111122 
SCCF RECON,ioos:station:SCCF:53:1,2011-07-04T04:00:00Z,26.6493,-81.8810,5.09,1111122 
SCCF RECON,ioos:station:SCCF:53:1,2011-07-04T05:00:00Z,26.6493,-81.8810,3.99,1111122 
SCCF RECON,ioos:station:SCCF:53:1,2011-07-04T06:00:00Z,26.6493,-81.8810,3.61,1111122 
SCCF RECON,ioos:station:SCCF:53:1,2011-07-04T07:00:00Z,26.6493,-81.8810,9.26,1111122 
SCCF RECON,ioos:station:SCCF:53:1,2011-07-04T08:00:00Z,26.6493,-81.8810,8.07,1111122 
SCCF RECON,ioos:station:SCCF:53:1,2011-07-04T09:00:00Z,26.6493,-81.8810,15.72,1111122 
SCCF RECON,ioos:station:SCCF:53:1,2011-07-04T10:00:00Z,26.6493,-81.8810,13.36,1111122 
SCCF RECON,ioos:station:SCCF:53:1,2011-07-04T11:00:00Z,26.6493,-81.8810,7.31,1111122 
SCCF RECON,ioos:station:SCCF:53:1,2011-07-04T12:00:00Z,26.6493,-81.8810,7.27,1111122 
SCCF RECON,ioos:station:SCCF:53:1,2011-07-04T13:00:00Z,26.6493,-81.8810,4.03,1111122 
SCCF RECON,ioos:station:SCCF:53:1,2011-07-04T14:00:00Z,26.6493,-81.8810,6.21,1111122 
SCCF RECON,ioos:station:SCCF:53:1,2011-07-04T15:00:00Z,26.6493,-81.8810,4.19,1111122 
SCCF RECON,ioos:station:SCCF:53:1,2011-07-04T16:00:00Z,26.6493,-81.8810,4.0,1111122 
SCCF RECON,ioos:station:SCCF:53:1,2011-07-04T17:00:00Z,26.6493,-81.8810,4.7,1111122 
SCCF RECON,ioos:station:SCCF:53:1,2011-07-04T18:00:00Z,26.6493,-81.8810,5.36,1111122 
SCCF RECON,ioos:station:SCCF:53:1,2011-07-04T19:00:00Z,26.6493,-81.8810,15.7,1111122 
SCCF RECON,ioos:station:SCCF:53:1,2011-07-04T20:00:00Z,26.6493,-81.8810,7.09,1111122 
SCCF RECON,ioos:station:SCCF:53:1,2011-07-04T21:00:00Z,26.6493,-81.8810,7.62,1111122 
SCCF RECON,ioos:station:SCCF:53:1,2011-07-04T22:00:00Z,26.6493,-81.8810,12.27,1111122 
SCCF RECON,ioos:station:SCCF:53:1,2011-07-04T23:00:00Z,26.6493,-81.8810,13.52,1111122 
SCCF RECON,ioos:station:SCCF:53:1,2011-07-05T00:00:00Z,26.6493,-81.8810,6.3,1111122 
SCCF RECON,ioos:station:SCCF:53:1,2011-07-05T01:00:00Z,26.6493,-81.8810,8.67,1111122 
SCCF RECON,ioos:station:SCCF:53:1,2011-07-05T02:00:00Z,26.6493,-81.8810,20.94,1111122 
SCCF RECON,ioos:station:SCCF:53:1,2011-07-05T03:00:00Z,26.6493,-81.8810,9.01,1111122 
SCCF RECON,ioos:station:SCCF:53:1,2011-07-05T04:00:00Z,26.6493,-81.8810,4.0,1111122 
SCCF RECON,ioos:station:SCCF:53:1,2011-07-05T05:00:00Z,26.6493,-81.8810,2.76,1111122 
SCCF RECON,ioos:station:SCCF:53:1,2011-07-05T06:00:00Z,26.6493,-81.8810,3.42,1111122 
SCCF RECON,ioos:station:SCCF:53:1,2011-07-05T07:00:00Z,26.6493,-81.8810,5.94,1111122 
SCCF RECON,ioos:station:SCCF:53:1,2011-07-05T08:00:00Z,26.6493,-81.8810,10.38,1111122 
SCCF RECON,ioos:station:SCCF:53:1,2011-07-05T09:00:00Z,26.6493,-81.8810,11.89,1111122 
SCCF RECON,ioos:station:SCCF:53:1,2011-07-05T10:00:00Z,26.6493,-81.8810,18.25,1111122 
SCCF RECON,ioos:station:SCCF:53:1,2011-07-05T11:00:00Z,26.6493,-81.8810,10.15,1111122 
SCCF RECON,ioos:station:SCCF:53:1,2011-07-05T12:00:00Z,26.6493,-81.8810,9.19,1111122 
SCCF RECON,ioos:station:SCCF:53:1,2011-07-05T13:00:00Z,26.6493,-81.8810,5.14,1111122 
SCCF RECON,ioos:station:SCCF:53:1,2011-07-05T14:00:00Z,26.6493,-81.8810,3.82,1111122 
SCCF RECON,ioos:station:SCCF:53:1,2011-07-05T15:00:00Z,26.6493,-81.8810,4.13,1111122 
SCCF RECON,ioos:station:SCCF:53:1,2011-07-05T16:00:00Z,26.6493,-81.8810,4.14,1111122 
SCCF RECON,ioos:station:SCCF:53:1,2011-07-05T17:00:00Z,26.6493,-81.8810,5.26,1111122 
SCCF RECON,ioos:station:SCCF:53:1,2011-07-05T18:00:00Z,26.6493,-81.8810,7.02,1111122 
SCCF RECON,ioos:station:SCCF:53:1,2011-07-05T19:00:00Z,26.6493,-81.8810,12.63,1111122 
SCCF RECON,ioos:station:SCCF:53:1,2011-07-05T20:00:00Z,26.6493,-81.8810,12.61,1111122 
SCCF RECON,ioos:station:SCCF:53:1,2011-07-05T21:00:00Z,26.6493,-81.8810,11.16,1111122 
SCCF RECON,ioos:station:SCCF:53:1,2011-07-05T22:00:00Z,26.6493,-81.8810,13.69,1111122 
SCCF RECON,ioos:station:SCCF:53:1,2011-07-05T23:00:00Z,26.6493,-81.8810,13.31,1111122 
SCCF RECON,ioos:station:SCCF:53:1,2011-07-06T00:00:00Z,26.6493,-81.8810,9.39,1111122 
SCCF RECON,ioos:station:SCCF:53:1,2011-07-06T01:00:00Z,26.6493,-81.8810,6.64,1111122 
SCCF RECON,ioos:station:SCCF:53:1,2011-07-06T02:00:00Z,26.6493,-81.8810,7.72,1111122 
SCCF RECON,ioos:station:SCCF:53:1,2011-07-06T03:00:00Z,26.6493,-81.8810,5.84,1111122 
SCCF RECON,ioos:station:SCCF:53:1,2011-07-06T04:00:00Z,26.6493,-81.8810,4.8,1111122 
SCCF RECON,ioos:station:SCCF:53:1,2011-07-06T05:00:00Z,26.6493,-81.8810,4.44,1111122 
SCCF RECON,ioos:station:SCCF:53:1,2011-07-06T06:00:00Z,26.6493,-81.8810,3.98,1111122 
SCCF RECON,ioos:station:SCCF:53:1,2011-07-06T07:00:00Z,26.6493,-81.8810,5.74,1111122 
SCCF RECON,ioos:station:SCCF:53:1,2011-07-06T08:00:00Z,26.6493,-81.8810,6.78,1111122 
SCCF RECON,ioos:station:SCCF:53:1,2011-07-06T09:00:00Z,26.6493,-81.8810,7.05,1111122 
SCCF RECON,ioos:station:SCCF:53:1,2011-07-06T10:00:00Z,26.6493,-81.8810,14.86,1111122 
SCCF RECON,ioos:station:SCCF:53:1,2011-07-06T11:00:00Z,26.6493,-81.8810,13.38,1111122 
SCCF RECON,ioos:station:SCCF:53:1,2011-07-06T12:00:00Z,26.6493,-81.8810,9.71,1111122 
SCCF RECON,ioos:station:SCCF:53:1,2011-07-06T13:00:00Z,26.6493,-81.8810,13.82,1111122 
SCCF RECON,ioos:station:SCCF:53:1,2011-07-06T14:00:00Z,26.6493,-81.8810,5.09,1111122 
SCCF RECON,ioos:station:SCCF:53:1,2011-07-06T15:00:00Z,26.6493,-81.8810,4.63,1111122 
SCCF RECON,ioos:station:SCCF:53:1,2011-07-06T16:00:00Z,26.6493,-81.8810,3.24,1111122 
SCCF RECON,ioos:station:SCCF:53:1,2011-07-06T17:00:00Z,26.6493,-81.8810,8.19,1111122 
SCCF RECON,ioos:station:SCCF:53:1,2011-07-06T18:00:00Z,26.6493,-81.8810,3.64,1111122 
SCCF RECON,ioos:station:SCCF:53:1,2011-07-06T19:00:00Z,26.6493,-81.8810,3.0,1111122 
SCCF RECON,ioos:station:SCCF:53:1,2011-07-06T20:00:00Z,26.6493,-81.8810,8.34,1111122 
SCCF RECON,ioos:station:SCCF:53:1,2011-07-06T21:00:00Z,26.6493,-81.8810,9.66,1111122 
SCCF RECON,ioos:station:SCCF:53:1,2011-07-06T22:00:00Z,26.6493,-81.8810,10.93,1111122 
SCCF RECON,ioos:station:SCCF:53:1,2011-07-06T23:00:00Z,26.6493,-81.8810,8.71,1111122 
SCCF RECON,ioos:station:SCCF:53:1,2011-07-07T00:00:00Z,26.6493,-81.8810,9.27,1111122 
SCCF RECON,ioos:station:SCCF:53:1,2011-07-07T01:00:00Z,26.6493,-81.8810,11.52,1111122 
SCCF RECON,ioos:station:SCCF:53:1,2011-07-07T02:00:00Z,26.6493,-81.8810,15.06,1111122 
SCCF RECON,ioos:station:SCCF:53:1,2011-07-07T03:00:00Z,26.6493,-81.8810,4.9,1111122 
SCCF RECON,ioos:station:SCCF:53:1,2011-07-07T04:00:00Z,26.6493,-81.8810,10.82,1111122 
SCCF RECON,ioos:station:SCCF:53:1,2011-07-07T05:00:00Z,26.6493,-81.8810,5.29,1111122 
SCCF RECON,ioos:station:SCCF:53:1,2011-07-07T06:00:00Z,26.6493,-81.8810,4.85,1111122 
SCCF RECON,ioos:station:SCCF:53:1,2011-07-07T07:00:00Z,26.6493,-81.8810,4.08,1111122 
SCCF RECON,ioos:station:SCCF:53:1,2011-07-07T08:00:00Z,26.6493,-81.8810,8.39,1111122 
SCCF RECON,ioos:station:SCCF:53:1,2011-07-07T09:00:00Z,26.6493,-81.8810,7.83,1111122 
SCCF RECON,ioos:station:SCCF:53:1,2011-07-07T10:00:00Z,26.6493,-81.8810,10.84,1111122 
SCCF RECON,ioos:station:SCCF:53:1,2011-07-07T11:00:00Z,26.6493,-81.8810,7.26,1111122 
SCCF RECON,ioos:station:SCCF:53:1,2011-07-07T12:00:00Z,26.6493,-81.8810,9.07,1111122 
SCCF RECON,ioos:station:SCCF:53:1,2011-07-07T13:00:00Z,26.6493,-81.8810,6.88,1111122 
SCCF RECON,ioos:station:SCCF:53:1,2011-07-07T14:00:00Z,26.6493,-81.8810,5.66,1111122 
SCCF RECON,ioos:station:SCCF:53:1,2011-07-07T15:00:00Z,26.6493,-81.8810,6.19,1111122 
SCCF RECON,ioos:station:SCCF:53:1,2011-07-07T16:00:00Z,26.6493,-81.8810,6.18,1111122 
SCCF RECON,ioos:station:SCCF:53:1,2011-07-07T17:00:00Z,26.6493,-81.8810,11.76,1111122 
SCCF RECON,ioos:station:SCCF:53:1,2011-07-07T18:00:00Z,26.6493,-81.8810,4.79,1111122 
SCCF RECON,ioos:station:SCCF:53:1,2011-07-07T19:00:00Z,26.6493,-81.8810,5.05,1111122 
SCCF RECON,ioos:station:SCCF:53:1,2011-07-07T20:00:00Z,26.6493,-81.8810,3.46,1111122 
SCCF RECON,ioos:station:SCCF:53:1,2011-07-07T21:00:00Z,26.6493,-81.8810,3.44,1111122 
SCCF RECON,ioos:station:SCCF:53:1,2011-07-07T22:00:00Z,26.6493,-81.8810,5.24,1111122 
SCCF RECON,ioos:station:SCCF:53:1,2011-07-07T23:00:00Z,26.6493,-81.8810,7.75,1111122 
SCCF RECON,ioos:station:SCCF:53:1,2011-07-08T00:00:00Z,26.6493,-81.8810,6.4,1111122 
SCCF RECON,ioos:station:SCCF:53:1,2011-07-08T01:00:00Z,26.6493,-81.8810,7.81,1111122 
SCCF RECON,ioos:station:SCCF:53:1,2011-07-08T02:00:00Z,26.6493,-81.8810,11.01,1111122 
SCCF RECON,ioos:station:SCCF:53:1,2011-07-08T03:00:00Z,26.6493,-81.8810,6.05,1111122 
SCCF RECON,ioos:station:SCCF:53:1,2011-07-08T04:00:00Z,26.6493,-81.8810,7.86,1111122 
SCCF RECON,ioos:station:SCCF:53:1,2011-07-08T05:00:00Z,26.6493,-81.8810,5.28,1111122 
SCCF RECON,ioos:station:SCCF:53:1,2011-07-08T06:00:00Z,26.6493,-81.8810,5.29,1111122 
SCCF RECON,ioos:station:SCCF:53:1,2011-07-08T07:00:00Z,26.6493,-81.8810,6.5,1111122 
SCCF RECON,ioos:station:SCCF:53:1,2011-07-08T08:00:00Z,26.6493,-81.8810,5.73,1111122 
SCCF RECON,ioos:station:SCCF:53:1,2011-07-08T09:00:00Z,26.6493,-81.8810,8.8,1111122 
SCCF RECON,ioos:station:SCCF:53:1,2011-07-08T10:00:00Z,26.6493,-81.8810,8.89,1111122 
SCCF RECON,ioos:station:SCCF:53:1,2011-07-08T11:00:00Z,26.6493,-81.8810,7.24,1111122 
SCCF RECON,ioos:station:SCCF:53:1,2011-07-08T12:00:00Z,26.6493,-81.8810,5.26,1111122 
SCCF RECON,ioos:station:SCCF:53:1,2011-07-08T13:00:00Z,26.6493,-81.8810,5.07,1111122 
SCCF RECON,ioos:station:SCCF:53:1,2011-07-08T14:00:00Z,26.6493,-81.8810,5.72,1111122 
SCCF RECON,ioos:station:SCCF:53:1,2011-07-08T15:00:00Z,26.6493,-81.8810,4.42,1111122 
SCCF RECON,ioos:station:SCCF:53:1,2011-07-08T16:00:00Z,26.6493,-81.8810,9.78,1111122 
SCCF RECON,ioos:station:SCCF:53:1,2011-07-08T17:00:00Z,26.6493,-81.8810,11.37,1111122 
SCCF RECON,ioos:station:SCCF:53:1,2011-07-08T18:00:00Z,26.6493,-81.8810,5.01,1111122 
SCCF RECON,ioos:station:SCCF:53:1,2011-07-08T19:00:00Z,26.6493,-81.8810,4.55,1111122 
SCCF RECON,ioos:station:SCCF:53:1,2011-07-08T20:00:00Z,26.6493,-81.8810,3.91,1111122 
SCCF RECON,ioos:station:SCCF:53:1,2011-07-08T21:00:00Z,26.6493,-81.8810,4.82,1111122 
SCCF RECON,ioos:station:SCCF:53:1,2011-07-08T22:00:00Z,26.6493,-81.8810,9.09,1111122 
SCCF RECON,ioos:station:SCCF:53:1,2011-07-08T23:00:00Z,26.6493,-81.8810,4.09,1111122 
SCCF RECON,ioos:station:SCCF:53:1,2011-07-09T00:00:00Z,26.6493,-81.8810,4.22,1111122 
SCCF RECON,ioos:station:SCCF:53:1,2011-07-09T01:00:00Z,26.6493,-81.8810,4.59,1111122 
SCCF RECON,ioos:station:SCCF:53:1,2011-07-09T02:00:00Z,26.6493,-81.8810,4.43,1111122 
SCCF RECON,ioos:station:SCCF:53:1,2011-07-09T03:00:00Z,26.6493,-81.8810,4.85,1111122 
SCCF RECON,ioos:station:SCCF:53:1,2011-07-09T04:00:00Z,26.6493,-81.8810,4.49,1111122 
SCCF RECON,ioos:station:SCCF:53:1,2011-07-09T05:00:00Z,26.6493,-81.8810,4.8,1111122 
SCCF RECON,ioos:station:SCCF:53:1,2011-07-09T06:00:00Z,26.6493,-81.8810,6.36,1111122 
SCCF RECON,ioos:station:SCCF:53:1,2011-07-09T07:00:00Z,26.6493,-81.8810,4.62,1111122 
SCCF RECON,ioos:station:SCCF:53:1,2011-07-09T08:00:00Z,26.6493,-81.8810,5.92,1111122 
SCCF RECON,ioos:station:SCCF:53:1,2011-07-09T09:00:00Z,26.6493,-81.8810,6.68,1111122 
SCCF RECON,ioos:station:SCCF:53:1,2011-07-09T10:00:00Z,26.6493,-81.8810,6.55,1111122 
SCCF RECON,ioos:station:SCCF:53:1,2011-07-09T11:00:00Z,26.6493,-81.8810,5.21,1111122 
SCCF RECON,ioos:station:SCCF:53:1,2011-07-09T12:00:00Z,26.6493,-81.8810,4.5,1111122 
SCCF RECON,ioos:station:SCCF:53:1,2011-07-09T13:00:00Z,26.6493,-81.8810,4.99,1111122 
SCCF RECON,ioos:station:SCCF:53:1,2011-07-09T14:00:00Z,26.6493,-81.8810,4.13,1111122 
SCCF RECON,ioos:station:SCCF:53:1,2011-07-09T15:00:00Z,26.6493,-81.8810,5.33,1111122 
SCCF RECON,ioos:station:SCCF:53:1,2011-07-09T16:00:00Z,26.6493,-81.8810,6.28,1111122 
SCCF RECON,ioos:station:SCCF:53:1,2011-07-09T17:00:00Z,26.6493,-81.8810,7.35,1111122 
SCCF RECON,ioos:station:SCCF:53:1,2011-07-09T18:00:00Z,26.6493,-81.8810,5.68,1111122 
SCCF RECON,ioos:station:SCCF:53:1,2011-07-09T19:00:00Z,26.6493,-81.8810,6.99,1111122 
SCCF RECON,ioos:station:SCCF:53:1,2011-07-09T20:00:00Z,26.6493,-81.8810,5.56,1111122 
SCCF RECON,ioos:station:SCCF:53:1,2011-07-09T21:00:00Z,26.6493,-81.8810,5.12,1111122 
SCCF RECON,ioos:station:SCCF:53:1,2011-07-09T22:00:00Z,26.6493,-81.8810,7.09,1111122 
SCCF RECON,ioos:station:SCCF:53:1,2011-07-09T23:00:00Z,26.6493,-81.8810,8.28,1111122 
SCCF RECON,ioos:station:SCCF:53:1,2011-07-10T00:00:00Z,26.6493,-81.8810,6.6,1111122 
SCCF RECON,ioos:station:SCCF:53:1,2011-07-10T01:00:00Z,26.6493,-81.8810,6.42,1111122 
SCCF RECON,ioos:station:SCCF:53:1,2011-07-10T02:00:00Z,26.6493,-81.8810,6.13,1111122 
SCCF RECON,ioos:station:SCCF:53:1,2011-07-10T03:00:00Z,26.6493,-81.8810,6.31,1111122 
SCCF RECON,ioos:station:SCCF:53:1,2011-07-10T04:00:00Z,26.6493,-81.8810,6.46,1111122 
SCCF RECON,ioos:station:SCCF:53:1,2011-07-10T05:00:00Z,26.6493,-81.8810,5.74,1111122 
SCCF RECON,ioos:station:SCCF:53:1,2011-07-10T06:00:00Z,26.6493,-81.8810,4.76,1111122 
SCCF RECON,ioos:station:SCCF:53:1,2011-07-10T07:00:00Z,26.6493,-81.8810,4.29,1111122 
SCCF RECON,ioos:station:SCCF:53:1,2011-07-10T08:00:00Z,26.6493,-81.8810,4.6,1111122 
SCCF RECON,ioos:station:SCCF:53:1,2011-07-10T09:00:00Z,26.6493,-81.8810,4.49,1111122 
SCCF RECON,ioos:station:SCCF:53:1,2011-07-10T10:00:00Z,26.6493,-81.8810,6.87,1111122 
SCCF RECON,ioos:station:SCCF:53:1,2011-07-10T11:00:00Z,26.6493,-81.8810,6.45,1111122 
SCCF RECON,ioos:station:SCCF:53:1,2011-07-10T12:00:00Z,26.6493,-81.8810,6.01,1111122 
SCCF RECON,ioos:station:SCCF:53:1,2011-07-10T13:00:00Z,26.6493,-81.8810,4.71,1111122 
SCCF RECON,ioos:station:SCCF:53:1,2011-07-10T14:00:00Z,26.6493,-81.8810,8.35,1111122 
SCCF RECON,ioos:station:SCCF:53:1,2011-07-10T15:00:00Z,26.6493,-81.8810,6.76,1111122 
SCCF RECON,ioos:station:SCCF:53:1,2011-07-10T16:00:00Z,26.6493,-81.8810,6.54,1111122 
SCCF RECON,ioos:station:SCCF:53:1,2011-07-10T17:00:00Z,26.6493,-81.8810,6.54,1111122 
SCCF RECON,ioos:station:SCCF:53:1,2011-07-10T18:00:00Z,26.6493,-81.8810,9.22,1111122 
SCCF RECON,ioos:station:SCCF:53:1,2011-07-10T19:00:00Z,26.6493,-81.8810,6.28,1111122 
SCCF RECON,ioos:station:SCCF:53:1,2011-07-10T20:00:00Z,26.6493,-81.8810,7.53,1111122 
SCCF RECON,ioos:station:SCCF:53:1,2011-07-10T21:00:00Z,26.6493,-81.8810,6.98,1111122 
SCCF RECON,ioos:station:SCCF:53:1,2011-07-10T22:00:00Z,26.6493,-81.8810,5.67,1111122 
SCCF RECON,ioos:station:SCCF:53:1,2011-07-10T23:00:00Z,26.6493,-81.8810,7.7,1111122 
SCCF RECON,ioos:station:SCCF:53:1,2011-07-11T00:00:00Z,26.6493,-81.8810,7.68,1111122 
SCCF RECON,ioos:station:SCCF:53:1,2011-07-11T01:00:00Z,26.6493,-81.8810,7.83,1111122 
SCCF RECON,ioos:station:SCCF:53:1,2011-07-11T02:00:00Z,26.6493,-81.8810,5.7,1111122 
SCCF RECON,ioos:station:SCCF:53:1,2011-07-11T03:00:00Z,26.6493,-81.8810,6.21,1111122 
SCCF RECON,ioos:station:SCCF:53:1,2011-07-11T04:00:00Z,26.6493,-81.8810,5.71,1111122 
SCCF RECON,ioos:station:SCCF:53:1,2011-07-11T05:00:00Z,26.6493,-81.8810,6.0,1111122 
SCCF RECON,ioos:station:SCCF:53:1,2011-07-11T06:00:00Z,26.6493,-81.8810,8.84,1111122 
SCCF RECON,ioos:station:SCCF:53:1,2011-07-11T07:00:00Z,26.6493,-81.8810,3.94,1111122 
SCCF RECON,ioos:station:SCCF:53:1,2011-07-11T08:00:00Z,26.6493,-81.8810,3.78,1111122 
SCCF RECON,ioos:station:SCCF:53:1,2011-07-11T09:00:00Z,26.6493,-81.8810,3.75,1111122 
SCCF RECON,ioos:station:SCCF:53:1,2011-07-11T10:00:00Z,26.6493,-81.8810,5.43,1111122 
SCCF RECON,ioos:station:SCCF:53:1,2011-07-11T11:00:00Z,26.6493,-81.8810,4.87,1111122 
SCCF RECON,ioos:station:SCCF:53:1,2011-07-11T12:00:00Z,26.6493,-81.8810,5.45,1111122 
SCCF RECON,ioos:station:SCCF:53:1,2011-07-11T13:00:00Z,26.6493,-81.8810,4.71,1111122 
SCCF RECON,ioos:station:SCCF:53:1,2011-07-11T14:00:00Z,26.6493,-81.8810,6.01,1111122 
SCCF RECON,ioos:station:SCCF:53:1,2011-07-11T15:00:00Z,26.6493,-81.8810,10.34,1111122 
SCCF RECON,ioos:station:SCCF:53:1,2011-07-11T16:00:00Z,26.6493,-81.8810,17.99,1111122 
SCCF RECON,ioos:station:SCCF:53:1,2011-07-11T17:00:00Z,26.6493,-81.8810,9.58,1111122 
SCCF RECON,ioos:station:SCCF:53:1,2011-07-11T18:00:00Z,26.6493,-81.8810,16.63,1111122 
SCCF RECON,ioos:station:SCCF:53:1,2011-07-11T19:00:00Z,26.6493,-81.8810,10.36,1111122 
SCCF RECON,ioos:station:SCCF:53:1,2011-07-11T20:00:00Z,26.6493,-81.8810,5.77,1111122 
SCCF RECON,ioos:station:SCCF:53:1,2011-07-11T21:00:00Z,26.6493,-81.8810,6.42,1111122 
SCCF RECON,ioos:station:SCCF:53:1,2011-07-11T22:00:00Z,26.6493,-81.8810,8.3,1111122 
SCCF RECON,ioos:station:SCCF:53:1,2011-07-11T23:00:00Z,26.6493,-81.8810,8.91,1111122 
SCCF RECON,ioos:station:SCCF:53:1,2011-07-12T00:00:00Z,26.6493,-81.8810,8.82,1111122 
SCCF RECON,ioos:station:SCCF:53:1,2011-07-12T01:00:00Z,26.6493,-81.8810,7.18,1111122 
SCCF RECON,ioos:station:SCCF:53:1,2011-07-12T02:00:00Z,26.6493,-81.8810,7.4,1111122 
SCCF RECON,ioos:station:SCCF:53:1,2011-07-12T03:00:00Z,26.6493,-81.8810,9.31,1111122 
SCCF RECON,ioos:station:SCCF:53:1,2011-07-12T04:00:00Z,26.6493,-81.8810,9.08,1111122 
SCCF RECON,ioos:station:SCCF:53:1,2011-07-12T05:00:00Z,26.6493,-81.8810,8.29,1111122 
SCCF RECON,ioos:station:SCCF:53:1,2011-07-12T06:00:00Z,26.6493,-81.8810,6.78,1111122 
SCCF RECON,ioos:station:SCCF:53:1,2011-07-12T07:00:00Z,26.6493,-81.8810,6.45,1111122 
SCCF RECON,ioos:station:SCCF:53:1,2011-07-12T08:00:00Z,26.6493,-81.8810,5.55,1111122 
SCCF RECON,ioos:station:SCCF:53:1,2011-07-12T09:00:00Z,26.6493,-81.8810,7.39,1111122 
SCCF RECON,ioos:station:SCCF:53:1,2011-07-12T10:00:00Z,26.6493,-81.8810,5.11,1111122 
SCCF RECON,ioos:station:SCCF:53:1,2011-07-12T11:00:00Z,26.6493,-81.8810,5.36,1111122 
SCCF RECON,ioos:station:SCCF:53:1,2011-07-12T12:00:00Z,26.6493,-81.8810,5.1,1111122 